Aérodrome :
LOGIN :

S'inscrire | Disclaimer

   EN    FR    IT 

 










Légende :    VFR   VFR Marginal   IFR   IFR Intensif   IFR Très Intensif
Visi : 
Plafond : 
>= 8 km
>= 3000ft
5 à 8 km
1000 à 3000 ft
1500m à 5 km
500 à 1000 ft
800 à 1500m
200 à 500 ft
< 800m
< 200 ft
Symboles :   Orages  Brouillard  Fortes neiges  Fortes précipitations  Vent > 20 kt
SIGMETs :   Divers  Orages  Givrage  Turbulence  Onde Orograph.  Cendres Volcan.







- Altitude de l'aérodrome : 39 ft


ETNH - Hohn AB

DERNIER METAR :
  • 222220Z 14005KT 9000 BKN170 M03/M07 Q1002 BLU

METARs EXPIRÉS :
  • 222120Z 13005KT 9000 BKN170 M02/M07 Q1003 BLU
  • 222020Z 14006KT 9000 BKN190 M02/M07 Q1003 BLU

TAF TAF ETNH
Valide du 22 à 18h jusqu'au 23 à 06h UTC


221710Z 2218/2306 14008KT 8000 NSW BKN150
BECMG 2223/2301 13004KT 5000 BR BKN150 BKN230
TEMPO 2301/2306 15003KT 3000 BR SCT007 BKN150 BKN250 BY ETGL
Pas de NOTAMs connus pour ce terrain.



MET'MAP, la Météo Aéronautique d'un coup d'oeil ! - Copyright ORBIFLY Décembre 2007 - Disclaimer

ORBIFLY MET'MAP TEAM :

Programmation & Développement : Alexandra Zaïnal
Conception & Développement : Baudouin d'Aumeries
Co-Programmation & Développement : Marc-Olivier Méhu
Soutien technique & logistique : Manuel Goepfert

Contact : metmap@orbifly.com




SOURCES & CREDITS :

   NOAA